"Time","Temp","Dewpoint","Humidity","Pressure","Direction","Speed","Gust","Precip","PrecipRate"
"00:04:56","71.7","70.7","96.5","30.16","298","4.4","15","0.06","0.04"
"00:09:56","71.5","70.3","96","30.16","296","2.9","15","0.18","0.17"
"00:14:59","71.3","70.1","96","30.16","325","2.3","7","0.20","0.19"
"00:19:57","71.2","70","96.1","30.16","308","0","0","0.21","0.21"
"00:24:56","71.1","70.1","96.5","30.16","304","0","0","0.22","0.22"
"00:29:58","71.1","70.2","97","30.16","304","0","0","0.23","0.23"
"00:34:57","71","70.1","97","30.15","304","0","0","0.24","0.24"
"00:39:57","71.1","70.2","97","30.15","304","0","0","0.24","0.24"
"00:44:59","71.1","70.2","97","30.15","304","0","0","0.25","0.25"
"00:49:58","71.1","70.2","97","30.13","304","0","1","0.25","0.25"
"00:54:57","71.1","70.2","97","30.13","304","0.9","3.5","0.26","0.26"
"00:59:56","71.1","70.2","97","30.13","304","1.7","4","0.27","0.27"
"01:04:58","71.1","70.2","97","30.13","304","0.5","3.5","0.27","0.27"
"01:09:56","71.1","70.2","97","30.13","304","0","1.2","0.27","0.20"
"01:14:56","71.1","70.2","97","30.13","303","0.5","2.3","0.27","0.09"
"01:19:59","71.1","70.2","97","30.13","303","0.7","2.3","0.27","0.07"
"01:24:58","71.1","70.2","97","30.13","303","0.2","2.3","0.27","0.06"
"01:29:56","71.1","70.2","97","30.13","302","0.4","2.3","0.27","0.05"
"01:34:59","71.1","70.2","97","30.13","302","0.6","2.3","0.27","0.04"
"01:39:59","71","70.1","97","30.13","301","1.2","3","0.27","0.03"
"01:44:57","71","70.1","97","30.13","300","1.2","3.5","0.27","0.03"
"01:49:56","71","70.1","97","30.13","299","1.3","3.5","0.27","0.02"
"01:54:58","71","70.1","97","30.13","290","1.7","4","0.27","0.02"
"01:59:57","70.9","70","97","30.13","237","1.4","3.5","0.27","0.01"
"02:04:59","70.8","69.9","97","30.13","216","1.9","3.5","0.27","0.00"
"02:09:58","70.8","69.9","97","30.13","154","0.5","4","0.27","0.00"
"02:14:58","70.8","69.9","97","30.13","157","1.7","4","0.27","0.00"
"02:19:57","70.7","69.8","97","30.13","158","1","3.5","0.27","0.00"
"02:24:59","70.7","69.8","97","30.13","176","0.7","4","0.27","0.00"
"02:29:58","70.7","69.8","97","30.16","276","3.1","7","0.27","0.00"
"02:34:56","70.6","69.7","97","30.16","275","2.8","10.4","0.27","0.00"
"02:39:56","70.6","69.7","97","30.16","311","1.6","6","0.27","0.00"
"02:44:59","70.6","69.7","97","30.16","256","2.4","5","0.27","0.00"
"02:49:57","70.6","69.7","97","30.15","252","0.9","4.6","0.27","0.00"
"02:54:56","70.6","69.7","97","30.15","252","1.1","3.5","0.27","0.00"
"02:59:59","70.6","69.7","97","30.15","252","1.6","3.5","0.27","0.00"
"03:04:58","70.6","69.7","97","30.14","252","1.2","3.5","0.27","0.00"
"03:09:57","70.6","69.7","97","30.14","252","1.2","3.5","0.27","0.00"
"03:14:57","70.6","69.7","97","30.14","250","0.9","3.5","0.27","0.00"
"03:19:56","70.6","69.7","97","30.13","250","0.3","2.3","0.27","0.00"
"03:24:59","70.6","69.7","97","30.13","250","0.1","2.3","0.27","0.00"
"03:29:58","70.6","69.7","97","30.14","250","0.3","2.3","0.27","0.00"
"03:34:56","70.6","69.7","97","30.14","250","1.1","2.3","0.27","0.00"
"03:39:57","70.6","69.7","97","30.14","250","0.3","2.3","0.27","0.00"
"03:44:56","70.6","69.8","97.2","30.14","250","0","0","0.27","0.00"
"03:49:59","70.6","69.8","97.4","30.13","250","0","0","0.27","0.00"
"03:54:58","70.6","69.9","97.6","30.13","250","0","0","0.27","0.00"
"03:59:56","70.6","69.7","97","30.13","250","0","0","0.27","0.00"
"04:04:59","70.5","69.6","97","30.13","250","0","0","0.27","0.00"
"04:09:58","70.4","69.5","97","30.13","250","0","0","0.27","0.00"
"04:14:58","70.4","69.5","97","30.13","250","0","0","0.27","0.00"
"04:19:57","70.4","69.7","97.5","30.12","250","0","0","0.27","0.00"
"04:24:56","70.4","69.6","97.4","30.12","250","0","0","0.27","0.00"
"04:29:58","70.4","69.8","98","30.12","250","0","0","0.27","0.00"
"04:34:57","70.4","69.8","98","30.12","250","0","0","0.27","0.00"
"04:39:57","70.4","69.8","98","30.12","250","0","0","0.27","0.00"
"04:44:56","70.4","69.8","98","30.12","250","0","0","0.27","0.00"
"04:49:59","70.4","69.5","97.1","30.12","250","0","0","0.27","0.00"
"04:54:58","70.3","69.4","97","30.12","250","0","0","0.27","0.00"
"04:59:57","70.2","69.3","97","30.12","250","0","0","0.27","0.00"
"05:04:59","70.3","69.5","97.5","30.12","250","0","0","0.27","0.00"
"05:09:58","70.3","69.7","98","30.12","250","0","0","0.27","0.00"
"05:14:58","70.4","69.8","98","30.12","250","0","0","0.27","0.00"
"05:19:57","70.4","69.8","98","30.12","250","0","0","0.27","0.00"
"05:24:56","70.4","69.8","98","30.12","250","0","0","0.27","0.00"
"05:29:59","70.4","69.6","97.4","30.12","250","0","0","0.27","0.00"
"05:34:58","70.3","69.4","97","30.12","250","0","0","0.27","0.00"
"05:39:58","70.3","69.5","97.5","30.12","250","0","0","0.27","0.00"
"05:44:57","70.2","69.3","97.2","30.12","250","0","0","0.27","0.00"
"05:49:56","70.1","69.2","97","30.12","250","0","0","0.27","0.00"
"05:54:56","70","69.3","97.6","30.12","250","0","0","0.27","0.00"
"05:59:59","69.9","69.3","98","30.13","250","0","0","0.27","0.00"
"06:04:57","69.9","69.3","98","30.13","250","0","0","0.27","0.00"
"06:09:57","69.9","69.3","98","30.13","250","0","0","0.27","0.00"
"06:14:57","69.9","69.3","98","30.14","250","0","0","0.27","0.00"
"06:19:56","69.8","69.2","98","30.14","250","0","0","0.27","0.00"
"06:24:56","69.8","69.2","98","30.14","250","0","0","0.27","0.00"
"06:29:59","69.8","69.2","98","30.15","250","0","0","0.27","0.00"
"06:34:58","69.8","69.2","98","30.15","250","0","0","0.27","0.00"
"06:39:59","69.7","69.1","98","30.15","250","0","0","0.27","0.00"
"06:44:58","69.7","69.1","98","30.15","250","0","0","0.27","0.00"
"06:49:57","69.7","69.1","98","30.15","250","0","0","0.27","0.00"
"06:54:56","69.8","69.2","98","30.15","250","0","0","0.27","0.00"
"06:59:59","69.8","69.2","98","30.15","250","0","0","0.27","0.00"
"07:04:57","69.9","69.3","98","30.15","250","0","0","0.27","0.00"
"07:09:56","70.1","69.5","98","30.15","250","0","0","0.27","0.00"
"07:14:56","70.1","69.5","98","30.15","250","0","0","0.27","0.00"
"07:19:59","70.2","69.6","98","30.15","250","0","0","0.27","0.00"
"07:24:57","70.2","69.6","98","30.15","250","0","0","0.27","0.00"
"07:29:56","70.3","69.7","98","30.15","250","0","0","0.27","0.00"
"07:34:59","70.4","69.8","98","30.15","250","0","0","0.27","0.00"
"07:39:58","70.5","69.9","98","30.15","250","0","0","0.27","0.00"
"07:44:57","70.6","70","98","30.15","250","0","0","0.27","0.00"
"07:49:56","70.7","70.1","98","30.15","250","0","0","0.27","0.00"
"07:54:59","71","70.4","98","30.15","250","0","0","0.27","0.00"
"07:59:58","71.2","70.6","98","30.16","250","0","0","0.27","0.00"
"08:04:57","71.3","70.7","98","30.16","250","0","0","0.27","0.00"
"08:09:56","71.6","71","98","30.16","250","0","0","0.27","0.00"
"08:14:56","71.9","71.3","98","30.16","250","0","0","0.27","0.00"
"08:19:58","72.1","71.5","98","30.16","250","0","0","0.27","0.00"
"08:24:57","72.3","71.7","98","30.16","250","0","0","0.27","0.00"
"08:29:56","72.7","72.1","98","30.17","250","0","0","0.27","0.00"
"08:34:59","73","72.4","98","30.17","250","0","0","0.27","0.00"
"08:39:58","73.4","72.8","98","30.17","250","0","0","0.27","0.00"
"08:44:57","73.7","72.9","97.4","30.17","250","0","0","0.27","0.00"
"08:49:56","74","73.1","97","30.17","250","0","0","0.27","0.00"
"08:54:59","74.3","73.1","96.1","30.17","250","0","0","0.27","0.00"
"08:59:57","74.6","73.4","96","30.17","250","0","0","0.27","0.00"
"09:04:59","74.7","73.2","94.8","30.17","250","0","0","0.27","0.00"
"09:09:58","74.9","73.4","95","30.17","250","0","0","0.27","0.00"
"09:14:59","75.2","73.7","95.1","30.17","250","0","0","0.27","0.00"
"09:19:57","75.5","73.9","94.7","30.17","250","0","0","0.27","0.00"
"09:24:56","75.5","73.2","92.7","30.17","250","0","0","0.27","0.00"
"09:29:56","75.7","73.7","93.5","30.17","250","0","0","0.27","0.00"
"09:34:58","76","73.7","92.8","30.17","250","0","0","0.27","0.00"
"09:39:58","76.1","73.5","91.5","30.17","250","0","0","0.27","0.00"
"09:44:57","76.3","73.6","91.2","30.17","250","0","0","0.27","0.00"
"09:49:59","76.6","74","91.8","30.17","250","0","0","0.27","0.00"
"09:54:58","76.9","74.1","91","30.17","250","0","0","0.27","0.00"
"09:59:57","77.3","74.3","90.5","30.17","250","0","0","0.27","0.00"
"10:04:59","77.7","74.2","89.3","30.17","250","0","0","0.27","0.00"
"10:09:59","77.9","74.4","89","30.17","250","0.3","3.5","0.27","0.00"
"10:14:58","78.3","74.7","88.7","30.18","264","1.1","4","0.27","0.00"
"10:19:57","78.8","74.9","87.9","30.18","273","0.6","4","0.27","0.00"
"10:24:58","79","74.8","87","30.18","273","0.9","3.5","0.27","0.00"
"10:29:57","79.3","75.4","87.8","30.18","273","0.7","3.5","0.27","0.00"
"10:34:57","79.8","75.6","87","30.18","273","0.3","3.5","0.27","0.00"
"10:39:58","80.2","75.8","86.6","30.18","271","0.3","2.3","0.27","0.00"
"10:44:58","80.8","76.2","85.9","30.18","272","0.1","1.2","0.27","0.00"
"10:49:58","81.2","76","84.3","30.18","274","2","4","0.27","0.00"
"10:54:58","81.4","76.3","84.5","30.18","275","1.2","4","0.27","0.00"
"10:59:57","81.7","76.2","83.6","30.18","300","2.9","5","0.27","0.00"
"11:04:57","82","76.7","84.1","30.18","312","0.1","3.5","0.27","0.00"
"11:09:57","82.4","77","83.8","30.18","300","1.7","4","0.27","0.00"
"11:14:58","82.7","76.9","82.8","30.18","298","1.9","3.5","0.27","0.00"
"11:19:58","83.1","77.1","82.3","30.18","298","0.2","2.3","0.27","0.00"
"11:24:58","83.6","77.5","82.1","30.18","298","0.1","1.2","0.27","0.00"
"11:29:56","83.8","76.8","79.5","30.18","298","0.9","3.5","0.27","0.00"
"11:34:56","84.3","77.2","79.5","30.18","298","0.9","3.5","0.27","0.00"
"11:39:57","84.8","77.6","79.1","30.18","298","0.7","3.5","0.27","0.00"
"11:44:57","85.3","77.8","78.4","30.18","298","0.6","2.3","0.27","0.00"
"11:49:57","85.7","77.7","77.2","30.18","298","0.7","4","0.27","0.00"
"11:54:57","85.7","76.8","75","30.18","315","2","5","0.27","0.00"
"11:59:57","85.3","76.4","74.7","30.18","325","3.2","5","0.27","0.00"
"12:04:56","85","76","74.3","30.18","331","1","4","0.27","0.00"
"12:09:57","85","76.4","75.4","30.18","331","1.1","4","0.27","0.00"
"12:14:58","85.5","77.1","76","30.18","329","0.6","4","0.27","0.00"
"12:19:58","86.1","77.3","75.3","30.18","328","2","5","0.27","0.00"
"12:24:58","86.4","77.5","75","30.18","329","1.3","4","0.27","0.00"
"12:29:57","86.8","77.2","73.3","30.18","329","1.3","4","0.27","0.00"
"12:34:57","87.1","77.7","73.7","30.18","329","1.5","4","0.27","0.00"
"12:39:58","87.4","77.7","72.9","30.18","331","1","4","0.27","0.00"
"12:44:58","87.7","77.5","71.9","30.18","331","1.2","4","0.27","0.00"
"12:49:58","87.9","77.9","72.5","30.18","330","1.5","4","0.27","0.00"
"12:54:57","87.9","78.3","73.2","30.18","331","1.6","6","0.27","0.00"
"12:59:57","88.1","78.5","73.3","30.18","338","1.5","5.8","0.27","0.00"
"13:04:57","88.4","78.1","71.7","30.18","338","0.9","3.5","0.27","0.00"
"13:09:57","88.7","78.1","71.1","30.18","8","1.9","7","0.27","0.00"
"13:14:58","88.6","76.1","66.8","30.18","17","2.7","5.8","0.27","0.00"
"13:19:58","88.7","76.6","67.6","30.17","17","1.6","4","0.27","0.00"
"13:24:58","88.8","76.3","66.5","30.17","8","1.9","4","0.27","0.00"
"13:29:58","88.8","76.6","67.2","30.17","322","1.4","3.5","0.27","0.00"
"13:34:58","89.1","77.9","69.7","30.16","323","0.8","3.5","0.27","0.00"
"13:39:59","89.2","77.1","67.7","30.16","329","2.4","6","0.27","0.00"
"13:44:59","89.1","76.8","67.2","30.16","331","0.8","3","0.27","0.00"
"13:49:59","89.2","77.1","67.6","30.15","330","1.3","5","0.27","0.00"
"13:54:58","89.7","78.4","69.5","30.15","331","1.7","4.6","0.27","0.00"
"13:59:58","89.5","77.3","67.5","30.15","331","0.2","1.2","0.27","0.00"
"14:04:57","89","77.7","69.5","30.15","333","0.5","3.5","0.27","0.00"
"14:09:58","88.9","77.8","70","30.15","333","1.8","5","0.27","0.00"
"14:14:59","89.2","78.1","70.1","30.15","332","0.6","2.3","0.27","0.00"
"14:19:59","89.5","77.6","68.2","30.14","332","2.8","7","0.27","0.00"
"14:24:59","90","78.4","68.9","30.14","331","0.8","4","0.27","0.00"
"14:29:58","90.6","78.1","66.9","30.14","332","0.8","3.5","0.27","0.00"
"14:34:58","90.7","77","64.4","30.14","332","1.3","3.5","0.27","0.00"
"14:39:59","91","78.3","66.7","30.14","332","0.8","2.3","0.27","0.00"
"14:44:59","91.5","78.7","66.5","30.14","331","1.3","4","0.27","0.00"
"14:49:59","91.9","78.4","64.9","30.13","10","0.8","4","0.27","0.00"
"14:54:59","92","77.1","62.1","30.13","20","0.8","2.3","0.27","0.00"
"14:59:58","91.9","76.5","60.9","30.13","20","0.2","2.3","0.27","0.00"
"15:04:58","91.3","75.4","59.8","30.13","20","0.1","1.2","0.27","0.00"
"15:09:58","91","75.6","60.8","30.13","38","1.2","3.5","0.27","0.00"
"15:14:59","90.6","75.8","62","30.13","46","0.8","3.5","0.27","0.00"
"15:19:59","90.5","76","62.8","30.12","47","1","3","0.27","0.00"
"15:24:59","90.2","75.4","62","30.12","47","0.3","2.3","0.27","0.00"
"15:29:59","89.8","74.8","61.4","30.12","46","0.7","2.3","0.27","0.00"
"15:34:59","89.5","78","69.1","30.12","25","0.2","2","0.27","0.00"
"15:39:56","89","78","70.2","30.12","314","0.1","2.3","0.27","0.00"
"15:44:59","88.3","78.6","73.1","30.13","244","0.3","2.3","0.27","0.00"
"15:49:59","87.9","78.5","73.9","30.13","244","0.3","2.3","0.27","0.00"
"15:54:59","87.5","77.8","73.1","30.13","244","0.5","2.3","0.27","0.00"
"15:59:56","87.2","76.8","71.3","30.13","243","1.1","4","0.27","0.00"
"16:04:59","87.1","76.7","71.3","30.12","302","1","3.5","0.27","0.00"
"16:09:59","86.9","76.6","71.4","30.12","294","1.2","3.5","0.27","0.00"
"16:14:56","86.7","76.5","71.8","30.13","289","0.8","3.5","0.27","0.00"
"16:19:56","86.5","76.7","72.6","30.13","288","1.1","6","0.27","0.00"
"16:24:56","86.4","76.3","72","30.13","290","1.6","6","0.27","0.00"
"16:29:59","86.2","76.8","73.9","30.13","299","2","6","0.27","0.00"
"16:34:59","85.7","77.1","75.5","30.13","245","2.4","7","0.27","0.00"
"16:39:56","85.2","76.6","75.5","30.13","300","1.9","4","0.27","0.00"
"16:44:59","84.6","75.8","75","30.13","287","2.1","4","0.27","0.00"
"16:49:59","84.1","75.8","76.3","30.13","229","2.3","6","0.27","0.00"
"16:54:59","83.8","75.5","76.2","30.13","182","2.7","6","0.27","0.00"
"16:59:59","83.4","75.3","76.8","30.13","208","2.9","6","0.27","0.00"
"17:04:58","82.9","74","74.6","30.13","200","4.4","9.2","0.27","0.00"
"17:09:58","82.5","73.8","75","30.13","188","2.4","4.6","0.27","0.00"
"17:14:59","82.2","73.4","74.8","30.14","179","3.2","6","0.27","0.00"
"17:19:59","81.9","73.4","75.6","30.14","196","3.8","10.4","0.27","0.00"
"17:24:59","81.6","73.6","76.7","30.14","200","2.4","6","0.27","0.00"
"17:29:58","81.5","73.8","77.6","30.14","203","1.7","4","0.27","0.00"
"17:34:58","81.4","73.5","77.1","30.14","206","2.1","6","0.27","0.00"
"17:39:59","81.3","73.9","78.2","30.14","207","1.3","3.5","0.27","0.00"
"17:44:59","81.3","74.2","79.1","30.14","207","0.7","2.3","0.27","0.00"
"17:49:59","81.4","74.2","78.7","30.14","207","1.5","3.5","0.27","0.00"
"17:54:59","81.4","73.9","78","30.14","207","0.3","2.3","0.27","0.00"
"17:59:59","81.4","74","78.4","30.14","207","0.7","2.3","0.27","0.00"
"18:04:58","81.4","74.5","79.6","30.14","207","0.5","2.3","0.27","0.00"
"18:09:58","81.4","74.7","80.3","30.14","207","1.3","3.5","0.27","0.00"
"18:14:55","81.3","74.4","79.7","30.15","206","1.5","4","0.27","0.00"
"18:19:55","81.2","73.9","78.5","30.15","206","1.4","3.5","0.27","0.00"
"18:24:59","81.1","73.6","78","30.15","207","1.8","4","0.27","0.00"
"18:29:59","81","73.6","78.2","30.16","207","1.6","4","0.27","0.00"
"18:34:59","80.9","73.1","77.2","30.16","206","1.7","4","0.27","0.00"
"18:39:56","80.8","73.4","78.1","30.16","206","1.4","3.5","0.27","0.00"
"18:44:59","80.6","73.5","79.1","30.17","211","2.1","4","0.27","0.00"
"18:49:55","80.3","73.5","79.7","30.17","229","1","3.5","0.27","0.00"
"18:54:59","80.1","73.6","80.8","30.17","223","0.9","3.5","0.27","0.00"
"18:59:55","79.8","73.6","81.6","30.18","223","0","1.2","0.27","0.00"
"19:04:59","79.5","74.3","84.2","30.18","223","0","0","0.27","0.00"
"19:09:56","79.2","73.8","83.6","30.18","221","0.6","2.3","0.27","0.00"
"19:14:57","79","73.8","84.2","30.18","221","0.7","2.3","0.27","0.00"
"19:19:56","78.8","73.7","84.2","30.17","209","1.3","3.5","0.27","0.00"
"19:24:59","78.5","73.1","83.5","30.17","160","2.3","6","0.27","0.00"
"19:29:57","78.2","72.8","83.7","30.18","171","3","9.2","0.27","0.00"
"19:34:56","77.8","72.6","84","30.18","183","2.9","6","0.27","0.00"
"19:39:59","77.3","72.3","84.6","30.18","160","2.3","5.8","0.27","0.00"
"19:44:57","77.1","72.3","85.2","30.18","162","2.1","5","0.27","0.00"
"19:49:56","76.9","72.4","86","30.17","165","1.7","4","0.27","0.00"
"19:54:58","76.8","72.5","86.6","30.17","157","1.9","5","0.27","0.00"
"19:59:57","76.7","72.5","87","30.18","153","1.6","4","0.27","0.00"
"20:04:59","76.7","72.5","87.1","30.18","153","1.7","4","0.27","0.00"
"20:09:58","76.5","72.7","88","30.18","153","1.6","3.5","0.27","0.00"
"20:14:58","76.4","72.6","88","30.18","153","1.2","3.5","0.27","0.00"
"20:19:57","76.3","72.5","88","30.18","153","1.1","3.5","0.27","0.00"
"20:24:56","76.2","72.4","88.2","30.18","154","1.3","3.5","0.27","0.00"
"20:29:59","76","72.5","89","30.19","154","1.2","3.5","0.27","0.00"
"20:34:58","75.9","72.4","89","30.19","163","2.1","6","0.27","0.00"
"20:39:58","75.7","72.1","88.7","30.19","189","2.6","6","0.27","0.00"
"20:44:56","75.7","72.1","88.7","30.20","210","1.7","5.8","0.27","0.00"
"20:49:59","75.7","71.9","88","30.20","198","2.6","5","0.27","0.00"
"20:54:58","75.6","71.8","88","30.20","164","1.5","4.6","0.27","0.00"
"20:59:57","75.5","71.7","88","30.21","165","1.2","4","0.27","0.00"
"21:04:59","75.5","71.7","88","30.21","172","1.6","5","0.27","0.00"
"21:09:57","75.3","71.5","88","30.21","190","1.9","4.6","0.27","0.00"
"21:14:57","75.2","71.4","88","30.21","148","2","5","0.27","0.00"
"21:19:56","75.1","71.3","88","30.21","146","2.1","5","0.27","0.00"
"21:24:58","75","71.2","88","30.21","153","1.5","4","0.27","0.00"
"21:29:57","74.9","71.1","88","30.21","153","2","6","0.27","0.00"
"21:34:59","74.9","71.3","88.5","30.21","173","1.9","5.8","0.27","0.00"
"21:39:59","74.8","71.3","89","30.21","174","2.1","6","0.27","0.00"
"21:44:58","74.6","71.1","89","30.21","137","1.9","4.6","0.27","0.00"
"21:49:57","74.5","71","89","30.21","137","1.2","5","0.27","0.00"
"21:54:59","74.4","70.9","89","30.21","148","1.8","5","0.27","0.00"
"21:59:58","74.3","70.8","89","30.22","148","1.8","5","0.27","0.00"
"22:04:56","74.2","70.7","89","30.22","132","1.6","5","0.27","0.00"
"22:09:59","74.1","70.6","89","30.22","140","1.9","5","0.27","0.00"
"22:14:59","74","70.6","89","30.22","151","1.4","4","0.27","0.00"
"22:19:58","73.9","70.5","89","30.22","154","1.3","3.5","0.27","0.00"
"22:24:57","73.9","70.5","89","30.22","151","1.8","5","0.27","0.00"
"22:29:59","73.8","70.4","89","30.22","142","2.8","6","0.27","0.00"
"22:34:58","73.8","70.4","89","30.22","157","1.8","4.6","0.27","0.00"
"22:39:58","73.7","70.3","89","30.22","157","1.7","4","0.27","0.00"
"22:44:58","73.6","70.4","89.5","30.22","161","1.8","4","0.27","0.00"
"22:49:56","73.6","70.5","90","30.21","163","1","3.5","0.27","0.00"
"22:54:59","73.6","70.5","90","30.21","163","0.8","3.5","0.27","0.00"
"22:59:58","73.5","70.4","90","30.21","163","0.5","2.3","0.27","0.00"
"23:04:56","73.5","70.4","90","30.21","163","1","3.5","0.27","0.00"
"23:09:59","73.5","70.4","90","30.21","163","0.3","3.5","0.27","0.00"
"23:14:59","73.4","70.3","90.2","30.21","163","1","3.5","0.27","0.00"
"23:19:58","73.3","70.4","90.7","30.21","163","1.5","4","0.27","0.00"
"23:24:56","73.1","70.3","91","30.21","163","1","2.3","0.27","0.00"
"23:29:56","72.9","70.1","91","30.21","163","0.2","1.2","0.27","0.00"
"23:34:59","72.8","70.2","91.8","30.20","163","0.7","3","0.27","0.00"
"23:39:59","72.7","70.2","92","30.20","163","0.9","3.5","0.27","0.00"
"23:44:57","72.6","70.1","92","30.20","163","0.6","2.3","0.27","0.00"
"23:49:56","72.5","70","92","30.20","163","0.6","2.3","0.27","0.00"
"23:54:55","72.4","69.9","92","30.20","163","0.3","2.3","0.27","0.00"
